Theta_e
341 341 338 338 338 339 335 333 332 331 333 335 334 335 333 328 330 333 330 330 329 329 329 329 330 332 333 333 333 333 334 333 334 333 333 332 331 330 328 325 325 325 325
341 342 338 338 339 338 338 332 331 333 331 333 333 332 333 332 331 329 327 329 329 329 328 327 330 330 331 331 332 331 331 330 330 330 330 330 329 328 327 326 325 325 325
341 342 340 338 338 338 335 333 334 334 332 329 331 331 330 332 332 329 327 328 327 328 327 327 327 330 326 325 329 329 328 327 327 328 329 330 328 328 327 326 325 325 324
342 341 342 337 337 337 334 333 333 332 332 331 331 332 330 330 331 328 327 326 327 327 328 326 326 327 328 328 327 325 327 326 325 327 327 327 327 326 325 325 324 324 323
341 341 342 337 337 337 334 333 333 332 330 330 331 328 329 331 332 328 327 326 325 326 326 326 324 324 323 324 327 325 325 325 325 327 326 326 325 324 323 323 322 323 322
340 341 340 337 337 336 334 334 333 333 332 328 332 332 330 327 329 327 326 326 326 326 327 326 326 325 324 325 327 326 326 326 328 327 326 324 324 323 322 321 321 321 320
341 341 340 338 337 336 334 334 334 333 333 331 326 333 331 328 325 326 326 325 325 325 325 326 325 324 323 324 327 327 326 326 328 326 324 324 323 322 322 321 321 321 320
340 340 340 338 337 335 334 334 334 333 332 331 328 330 332 329 327 326 325 325 325 324 325 325 325 324 323 324 327 325 324 324 324 325 324 324 322 321 321 321 320 320 320
340 340 340 340 338 335 334 334 333 332 331 330 329 329 333 330 327 325 326 325 325 324 325 325 323 324 323 323 325 325 323 322 325 324 323 323 323 322 322 320 320 319 319
339 339 339 339 339 338 338 335 333 331 330 329 329 328 330 328 329 326 326 324 324 324 324 323 323 321 323 322 323 322 324 323 321 324 323 324 322 322 322 320 319 319 318
339 339 339 339 338 338 338 338 336 331 331 330 328 327 329 329 328 329 328 326 326 324 324 323 322 317 319 320 322 322 322 323 323 323 323 323 321 323 322 321 320 319 319
339 339 339 339 339 338 338 337 336 335 334 333 331 331 328 329 327 329 329 327 325 325 324 323 323 320 316 318 321 321 322 322 323 323 323 323 321 322 323 321 320 319 318
336 338 338 339 339 339 338 337 336 335 335 334 334 332 332 329 329 328 328 328 327 326 326 325 325 324 321 320 319 321 322 322 322 322 322 322 319 320 324 323 320 319 319
332 334 336 338 338 338 339 338 337 336 335 335 334 334 332 330 329 329 327 327 328 327 327 326 325 325 324 323 321 319 321 322 321 321 321 320 319 318 322 326 323 319 319
325 326 329 333 336 338 337 338 337 337 336 335 335 334 333 331 330 329 328 327 327 327 326 326 326 326 325 324 322 321 320 319 320 321 320 320 320 318 317 322 325 322 320
321 321 323 326 330 334 337 337 336 337 337 337 336 335 333 332 331 330 329 328 327 326 326 326 325 325 325 324 324 322 321 320 319 320 321 321 321 320 318 318 322 325 323
319 319 320 322 324 328 332 334 336 335 336 336 336 335 335 333 332 331 330 329 328 327 326 326 325 325 324 324 324 324 323 322 321 320 320 321 321 321 319 318 319 322 325
318 319 319 320 321 324 327 329 331 333 335 334 334 335 335 334 333 332 331 330 329 328 327 326 326 325 324 324 323 323 323 323 322 321 320 320 321 321 321 320 318 318 321
316 317 317 318 319 321 324 326 328 331 333 334 334 335 334 334 333 332 332 331 330 329 328 327 327 326 325 324 324 323 323 322 322 322 320 320 320 321 321 320 319 318 318
315 315 315 316 317 318 320 324 326 328 331 332 333 332 332 333 332 331 331 332 331 330 329 328 327 327 326 326 325 323 322 322 322 322 322 321 320 320 321 320 320 319 317
314 315 315 315 315 316 318 322 325 327 329 330 331 330 329 330 329 329 329 330 331 330 329 328 328 327 327 326 325 324 324 323 323 323 322 322 322 321 320 321 321 321 319
312 312 313 314 316 317 315 319 323 325 326 327 329 330 330 328 328 328 327 327 329 329 329 328 328 328 327 326 323 322 323 324 324 324 323 323 322 321 321 321 321 321 321
310 309 309 310 313 315 321 316 318 322 325 326 328 329 329 329 327 327 327 326 327 327 328 327 327 327 327 326 324 324 323 325 326 326 324 323 322 321 321 320 321 321 321
307 307 306 307 309 311 315 322 321 323 325 325 326 327 327 328 328 327 326 326 326 326 326 326 326 325 326 326 325 323 324 325 326 327 326 323 321 321 321 321 321 321 321
305 305 304 303 304 307 309 313 320 322 325 325 325 327 328 328 329 328 328 328 327 326 326 326 326 325 325 325 325 323 321 322 322 323 325 324 325 322 321 320 320 320 320
303 302 302 301 300 302 303 305 308 311 314 313 313 316 319 322 325 325 326 326 327 328 328 327 326 326 325 325 324 324 323 321 321 321 322 322 322 323 324 323 320 320 321
Wind_Speed
7 9 12 11 11 10 9 10 9 9 10 8 7 8 8 9 10 11 10 11 9 9 9 10 10 11 12 13 14 15 17 16 18 18 18 18 16 15 15 15 13 14 16
11 11 11 10 11 10 10 9 8 8 8 7 6 4 6 6 8 9 8 10 7 8 8 8 10 9 10 11 13 15 17 17 16 16 16 16 14 13 13 13 13 13 14
13 12 12 11 9 9 9 8 8 8 4 5 5 5 6 6 6 8 8 7 7 6 6 6 6 9 8 9 10 11 12 13 12 13 11 10 11 12 11 12 12 12 13
11 10 10 11 11 9 8 8 8 7 5 6 6 5 4 5 6 5 6 6 6 5 5 5 3 6 6 6 5 6 6 7 9 10 6 7 8 10 10 10 10 11 11
10 9 10 10 12 10 8 7 7 6 6 6 5 3 3 3 2 5 3 3 3 4 4 5 3 3 4 3 1 3 3 4 7 7 5 6 5 7 8 9 8 8 10
9 8 8 11 11 10 8 7 5 5 4 5 6 4 5 3 4 4 3 3 2 2 2 4 1 1 2 1 1 2 2 3 4 2 3 5 6 6 7 6 7 11 8
7 6 7 10 10 9 8 6 6 4 5 4 5 8 6 3 4 5 4 3 3 2 3 4 4 4 3 2 1 2 1 3 1 1 2 2 4 5 5 5 6 6 6
6 6 7 9 10 9 8 6 6 5 5 5 4 6 10 7 2 8 5 5 4 4 5 5 6 6 3 3 2 2 2 2 2 1 1 1 2 2 3 4 5 5 6
5 5 6 7 9 10 9 9 8 7 7 7 7 7 10 8 6 5 8 6 7 5 5 6 8 8 5 5 3 5 4 3 5 3 3 3 3 1 1 2 3 4 5
4 5 6 7 8 10 10 11 10 9 8 8 8 9 10 9 9 9 10 10 10 10 10 9 10 9 9 8 8 7 7 7 8 5 5 5 7 2 3 3 4 5 6
5 6 7 8 9 10 10 10 11 12 10 10 11 12 13 11 11 12 12 11 11 11 11 11 11 11 11 11 11 11 10 8 10 8 7 10 10 5 5 6 6 6 7
7 8 9 9 9 10 10 9 9 10 10 11 11 11 12 11 10 11 13 14 15 14 13 11 12 12 13 10 10 11 13 11 10 10 9 11 11 7 8 7 8 8 9
5 8 10 11 11 11 11 11 11 12 13 13 14 14 13 12 12 12 12 12 16 15 13 14 13 12 12 11 11 12 10 11 11 11 11 15 13 10 11 10 9 10 11
7 8 10 12 13 13 13 13 13 15 15 14 14 15 15 14 13 13 14 14 14 14 13 15 14 15 14 14 15 14 14 14 13 13 13 16 15 14 13 14 12 12 13
10 9 9 11 14 15 15 15 16 16 17 16 15 15 17 16 16 15 15 15 15 15 16 16 16 16 16 16 16 16 17 17 17 16 15 17 18 17 16 16 17 15 14
13 13 11 10 12 14 17 16 16 17 17 18 18 18 18 19 18 17 16 17 17 18 17 17 17 17 18 18 18 19 19 19 19 19 18 18 19 19 21 20 19 19 18
16 16 15 14 14 14 17 18 18 18 18 19 19 20 20 21 20 19 18 18 18 18 19 19 18 18 19 19 20 19 20 21 22 23 22 22 20 22 23 25 24 22 22
14 15 15 15 14 15 16 17 16 17 18 21 22 20 20 22 22 20 21 21 19 19 19 20 20 20 20 20 21 21 23 22 24 24 25 25 24 23 23 24 28 28 26
13 14 15 14 14 14 16 17 17 17 17 19 19 20 21 22 23 23 23 22 21 22 22 21 20 21 20 21 21 22 23 22 23 24 27 26 27 28 26 27 29 31 33
8 9 12 13 13 13 13 14 16 17 18 19 19 21 21 22 22 22 23 22 21 21 22 21 22 21 22 21 19 22 21 23 24 27 29 27 30 31 32 33 30 34 34
6 8 9 11 11 11 11 13 14 16 16 17 17 18 20 22 24 26 26 22 21 23 23 22 22 23 23 22 18 20 22 24 26 30 29 30 30 32 33 35 35 34 38
7 9 10 10 10 9 10 11 13 12 12 13 13 13 16 18 22 24 24 25 25 22 23 25 22 22 22 22 12 14 3 13 26 32 32 31 32 31 32 35 35 36 36
9 11 12 12 12 10 10 10 11 11 11 11 11 11 11 13 16 20 22 22 24 26 23 25 26 23 21 21 26 15 3 5 10 16 21 29 29 31 32 33 34 37 37
10 11 12 13 14 13 14 6 6 9 9 9 9 8 9 11 12 14 16 18 19 21 24 28 28 27 25 21 21 29 31 23 4 6 16 22 24 24 26 28 30 33 36
9 10 11 12 14 15 16 14 10 10 9 10 9 9 8 9 9 11 12 16 18 20 23 25 26 24 25 26 24 17 23 27 25 12 11 13 23 23 29 28 29 30 34
7 8 10 11 13 15 16 16 15 13 10 11 11 11 11 10 9 9 9 13 13 18 23 24 26 28 28 29 28 26 22 11 10 14 9 14 16 29 30 28 29 31 32
Wind_Direction
132 136 141 145 141 130 121 118 108 109 114 110 110 109 108 109 104 97 101 102 96 96 93 90 80 81 83 80 85 88 92 106 96 90 84 76 70 69 68 79 69 69 76
130 139 145 153 148 143 131 117 109 106 108 123 117 98 100 108 115 118 110 105 107 99 90 89 75 85 91 85 90 96 98 99 92 80 60 62 66 66 68 73 79 80 81
139 147 152 157 157 145 132 120 112 104 73 98 126 116 101 100 115 102 108 115 118 107 96 92 76 73 86 94 97 102 102 96 90 82 82 70 64 63 73 78 81 88 86
144 150 160 161 160 158 145 131 120 123 114 100 123 123 103 109 119 122 119 120 122 126 108 103 91 64 81 82 101 108 103 91 76 69 65 68 62 61 75 86 90 97 91
149 153 171 170 166 166 158 149 140 126 114 130 133 135 145 123 136 136 125 125 136 139 144 139 122 108 112 68 129 137 111 89 69 67 67 66 66 64 80 85 92 106 115
153 156 185 173 174 175 169 163 164 160 143 125 163 179 164 141 178 154 162 153 166 151 156 177 183 177 165 163 183 187 151 90 90 62 49 67 74 80 85 96 114 123 110
158 163 174 179 185 186 188 186 189 193 195 173 178 194 184 156 166 183 207 195 202 199 212 222 283 284 255 259 243 194 185 123 99 348 22 74 87 68 94 103 114 121 118
166 174 178 195 194 202 208 213 207 211 227 229 218 218 196 189 234 192 206 218 227 228 241 250 259 262 268 303 240 205 188 138 283 323 2 9 339 39 115 130 139 147 143
178 190 192 197 211 214 219 222 227 234 233 237 233 221 212 207 198 197 213 227 227 238 251 263 272 249 260 273 258 253 253 264 277 278 296 308 276 5 165 164 169 170 168
194 206 212 213 214 219 231 240 238 245 241 237 236 232 224 230 233 217 217 223 234 242 245 258 271 258 251 260 265 265 257 259 274 279 276 267 281 250 215 206 197 197 194
216 220 222 227 230 233 237 252 261 246 242 235 231 230 233 236 247 232 231 233 243 245 249 260 259 251 247 253 260 260 258 262 270 276 278 271 283 246 230 220 214 211 208
229 234 230 232 234 239 239 243 247 239 238 235 232 231 230 231 236 232 233 240 245 254 256 260 260 261 254 247 257 262 255 255 269 269 271 272 282 246 234 231 228 222 221
259 240 240 239 237 236 240 239 239 235 237 232 233 229 230 231 231 233 230 239 240 243 240 250 250 254 243 240 243 244 246 250 255 261 265 271 271 249 239 234 236 234 229
266 259 253 246 241 240 240 244 243 240 237 232 234 229 227 228 231 230 229 235 235 234 233 239 243 245 243 243 245 248 251 250 251 254 256 263 266 253 244 241 231 241 239
284 283 270 255 246 241 240 241 246 244 242 240 238 232 226 227 228 229 231 232 232 234 240 242 244 246 247 248 250 251 252 252 253 254 254 262 262 249 242 241 242 237 241
296 294 288 274 255 246 239 243 240 245 246 244 239 237 232 230 229 229 231 231 232 232 236 241 247 250 251 252 251 251 253 254 255 256 256 257 261 258 246 240 236 237 235
295 292 285 275 262 251 246 246 246 247 246 244 245 242 234 232 232 232 233 233 234 234 234 235 239 244 252 254 254 253 252 252 251 250 251 250 253 261 253 245 239 236 238
291 287 285 276 269 261 253 250 250 247 244 248 247 245 240 237 235 235 234 235 234 234 234 234 235 236 238 244 250 253 252 250 251 252 250 247 245 243 250 250 245 241 236
292 291 288 286 282 274 264 257 251 246 243 243 241 243 242 241 237 235 237 238 235 233 233 234 237 236 241 242 243 248 250 253 254 252 250 246 244 242 241 243 247 242 238
309 305 298 293 287 280 270 261 254 250 246 246 244 242 242 244 241 240 243 244 241 238 236 237 239 240 241 247 252 255 251 250 253 253 251 248 244 242 241 240 240 245 241
344 343 336 324 309 293 275 261 255 253 251 251 253 253 250 250 250 250 249 252 252 245 243 241 244 242 243 246 248 256 261 258 257 254 252 249 246 246 242 240 237 237 246
14 7 1 356 346 323 284 271 263 264 263 262 263 260 254 254 253 255 259 260 255 256 250 246 247 249 245 238 217 237 258 259 248 247 246 244 246 246 245 245 239 237 236
28 19 14 11 6 358 334 280 265 262 265 270 269 269 265 272 267 261 264 266 261 258 260 256 252 253 246 242 230 226 232 240 261 246 237 235 239 240 241 243 242 239 239
30 24 24 22 20 15 9 346 289 282 286 291 298 296 294 292 280 274 270 270 267 261 258 259 260 259 253 248 247 231 241 262 282 281 254 244 242 246 245 243 241 240 240
39 29 27 30 32 30 31 33 31 19 357 348 344 349 335 316 294 273 277 279 272 270 267 263 261 256 252 250 248 251 239 249 258 263 275 255 265 253 250 246 245 244 244
50 40 33 31 32 32 34 35 38 36 27 20 7 358 341 339 339 341 318 310 304 277 265 269 272 267 262 258 254 252 249 232 239 240 256 265 262 266 267 263 247 245 246